This demonstration page uses our WeatherBlox Daily Observations layout. Learn more.

Left ArrowRight Arrow

38.83388, -104.82136

Hourly Observations for October 4, 2022

Temp ( °F °C ) Dew Point ( °F °C ) Humidity (%) Winds ( mph kmh ) Pressure ( in mb ) Visibility ( mi km ) Precip ( " mm )
12:22 am 00:22 Cloudy with Light Rain 54 12 41 5 62 62 NNW 8 13 29.13 986 10 16 0.00 0.00
12:56 am 00:56 Cloudy with Light Rain 51 10.5 46 7.6 82 82 NNW 12 19 29.08 985 10 16 0.01 0.25
1:00 am 01:00 Mostly Cloudy 52 11 45 7 76 76 NNW 12 19 29.08 985 10 16 0.00 0.00
1:56 am 01:56 Mostly Cloudy 51 10.8 44 6.5 75 75 WNW 6 9 29.13 986 10 16 0.01 0.13
2:56 am 02:56 Cloudy 53 11.5 44 6.4 71 71 NW 3 6 29.12 986 10 16 0.00 0.00
3:56 am 03:56 Cloudy 53 11.7 42 5.8 67 67 Calm 29.13 986 10 16 0.00 0.00
4:56 am 04:56 Cloudy 53 11.5 43 6.2 70 70 Calm 29.12 986 10 16 0.00 0.00
4:59 am 04:59 Cloudy with Light Rain 52 11 43 6 71 71 Calm 29.14 987 10 16 0.00 0.00
5:16 am 05:16 Cloudy 52 11 45 7 76 76 WNW 3 6 29.13 986 10 16 0.00 0.00
5:56 am 05:56 Cloudy 52 11.3 44 6.4 72 72 Calm 29.14 987 10 16 0.01 0.13
6:56 am 06:56 Cloudy 53 11.5 44 6.4 71 71 Calm 29.17 988 10 16 0.00 0.00
7:56 am 07:56 Cloudy 51 10.4 43 6.2 75 75 Calm 29.18 988 10 16 0.00 0.00
8:56 am 08:56 Cloudy 51 10.4 44 6.9 79 79 SSE 6 9 29.20 989 10 16 0.00 0.00
9:25 am 09:25 Cloudy with Light Rain 52 11 45 7 76 76 SSE 9 15 29.21 989 10 16 0.00 0.00
9:41 am 09:41 Cloudy with Light Rain 54 12 45 7 71 71 NNW 3 6 29.24 990 10 16 0.00 0.00
9:56 am 09:56 Cloudy with Light Rain 52 11.3 44 6.8 74 74 SSW 3 6 29.21 989 10 16 0.01 0.13
10:06 am 10:06 Mostly Cloudy 54 12 48 9 82 82 Calm 29.21 989 10 16 0.00 0.00
10:56 am 10:56 Cloudy 58 14.3 42 5.4 55 55 Calm 29.39 995 10 16 0.01 0.13
11:04 am 11:04 Cloudy with Light Rain 57 14 41 5 55 55 SE 3 6 29.36 994 10 16 0.00 0.00
11:56 am 11:56 Cloudy with Light Rain 53 11.9 44 6.8 71 71 SSW 7 11 29.18 988 10 16 0.02 0.51
12:15 pm 12:15 Partly Cloudy 57 14 46 8 67 67 Calm 29.21 989 10 16 0.00 0.00
12:56 pm 12:56 Mostly Cloudy 59 15.2 42 5.7 53 53 Calm 29.39 995 10 16 0.01 0.13
1:56 pm 13:56 Cloudy 59 15.2 40 4.6 49 49 Calm 29.37 995 10 16 0.00 0.00
2:23 pm 14:23 Cloudy with Light Rain 57 14 43 6 58 58 NW 10 17 29.30 992 10 16 0.00 0.00
2:56 pm 14:56 Cloudy with Light Rain 56 13.2 45 7 66 66 W 8 13 29.14 987 10 16 0.02 0.51
3:43 pm 15:43 Cloudy 55 13 45 7 67 67 SW 8 13 29.12 986 10 16 0.00 0.00
3:56 pm 15:56 Cloudy 56 13.4 44 6.5 63 63 SSW 7 11 29.20 989 10 16 0.05 1.27
4:56 pm 16:56 Mostly Cloudy 57 13.8 40 4.6 54 54 SW 9 15 29.21 989 10 16 0.00 0.00
5:56 pm 17:56 Cloudy 58 14.2 40 4.5 52 52 WNW 5 7 29.23 990 10 16 0.00 0.00
6:56 pm 18:56 Cloudy 55 12.5 42 5.6 63 63 S 6 9 29.20 989 10 16 0.00 0.00
7:56 pm 19:56 Cloudy 55 12.5 42 5.4 62 62 S 8 13 29.20 989 10 16 0.00 0.00
8:56 pm 20:56 Cloudy 54 12 42 5.6 65 65 S 9 15 29.24 990 10 16 0.00 0.00
9:56 pm 21:56 Clear 52 11.2 42 5.7 69 69 S 9 15 29.22 989 10 16 0.00 0.00
10:56 pm 22:56 Cloudy 51 10.6 43 6.2 74 74 S 5 7 29.21 989 10 16 0.00 0.00
11:06 pm 23:06 Cloudy 52 11 43 6 71 71 S 6 9 29.22 990 10 16 0.00 0.00
11:21 pm 23:21 Cloudy with Light Rain 52 11 43 6 71 71 SSE 3 6 29.22 990 10 16 0.00 0.00
11:47 pm 23:47 Cloudy 50 10 46 8 87 87 Calm 29.23 990 10 16 0.00 0.00
11:56 pm 23:56 Cloudy 51 10.3 46 7.5 83 83 Calm 29.23 990 10 16 0.01 0.13

Powered by AerisWeather